Probability
0 0 0 0 0 0 0 0 0 0 0 0 0 0 0 0 0 0 0 0 0 0 0 0 0 0 0 0 0 0 0 0 0 0 0 0 0 0 0 0 0 0 0 0
0 0 0 0 0 0 0 0 0 0 0 0 0 0 0 0 0 0 0 0 0 0 0 0 0 0 0 0 0 0 0 0 0 0 0 0 0 0 0 0 0 0 0 0
0 0 0 0 0 0 0 0 0 0 0 0 0 0 0 0 0 0 0 0 0 0 0 0 0 0 0 0 0 0 0 0 0 0 0 0 0 0 0 0 0 0 0 0
0 0 0 0 0 0 0 0 0 0 0 0 0 0 0 0 0 0 0 0 0 0 0 0 0 0 0 0 0 0 0 0 0 0 0 0 0 0 0 0 0 0 0 0
0 0 0 0 0 0 0 0 0 0 0 0 0 0 0 0 0 0 0 0 0 0 0 0 0 0 0 0 0 0 0 0 0 0 0 0 0 0 0 0 0 0 0 0
0 0 0 0 0 0 0 0 0 0 0 0 0 0 0 0 0 0 0 0 0 0 0 0 0 0 0 0 0 0 0 0 0 0 0 0 0 0 0 0 0 0 0 0
0 0 0 0 0 0 0 0 0 0 0 0 0 0 0 0 0 0 0 0 0 0 0 0 0 0 0 0 0 0 0 0 0 0 0 0 0 0 0 0 0 0 0 0
0 0 0 0 0 0 0 0 0 0 0 0 0 0 0 0 0 0 0 0 0 0 0 0 0 0 0 0 0 0 0 0 0 0 0 0 0 0 0 0 0 0 0 0
0 0 0 0 0 0 0 0 0 0 0 0 0 0 0 0 0 0 0 0 0 0 0 0 0 0 0 0 0 0 0 0 0 0 0 0 0 0 0 0 0 0 0 0
0 0 0 0 0 0 0 0 0 0 0 0 0 0 0 0 0 0 0 0 0 0 0 0 0 0 0 0 0 0 0 0 0 0 0 0 0 0 0 0 0 0 0 0
0 0 0 0 0 0 0 0 0 0 0 0 0 0 0 0 0 0 0 0 0 0 0 0 0 0 0 0 0 0 0 0 0 0 0 0 0 0 0 0 0 0 0 0
0 0 0 0 0 0 0 0 0 0 0 0 0 0 0 0 0 0 0 0 0 0 0 0 0 0 0 0 0 0 0 0 0 0 0 0 0 0 0 0 0 0 0 0
0 0 0 0 0 0 0 0 0 0 0 0 0 0 0 0 0 0 0 0 0 0 0 0 0 0 0 0 0 0 0 0 0 0 0 0 0 0 0 0 0 0 0 0
0 0 0 0 0 0 0 0 0 0 0 0 0 0 0 0 0 0 0 0 0 0 0 0 0 0 0 0 0 0 0 0 0 0 0 0 0 0 0 0 0 0 0 0
0 0 0 0 0 0 0 0 0 0 0 0 0 0 0 0 0 0 0 0 0 0 0 0 0 0 0 0 0 0 0 0 0 0 0 0 0 0 0 0 0 0 0 0
0 0 0 0 0 0 0 0 0 0 0 0 0 0 0 0 0 0 0 0 0 0 0 0 0 0 0 0 0 0 0 0 0 0 0 0 0 0 0 0 0 0 0 0
0 0 0 0 0 0 0 0 0 0 0 0 0 0 0 0 0 0 0 0 0 0 0 0 0 0 0 0 0 0 0 0 0 0 0 0 0 0 0 0 0 0 0 0
0 0 0 0 0 0 0 0 0 0 0 0 0 0 0 0 0 0 0 0 0 0 0 0 0 0 0 0 0 0 0 0 0 0 0 0 0 0 0 0 0 0 0 0
0 0 0 0 0 0 0 0 0 0 0 0 0 0 0 0 0 0 0 0 0 0 0 0 0 0 0 0 0 0 0 0 0 0 0 0 0 0 0 0 0 0 0 0
0 0 0 0 0 0 0 0 0 0 0 0 0 0 0 0 0 0 0 0 0 0 0 0 0 0 0 0 0 0 0 0 0 0 0 0 0 0 0 0 0 0 0 0
0 0 0 0 0 0 0 0 0 0 0 0 0 0 0 0 0 0 0 0 0 0 0 0 0 0 0 0 0 0 0 0 0 0 0 0 0 0 0 0 0 0 0 0
0 0 0 0 0 0 0 0 0 0 0 0 0 0 0 0 0 0 0 0 0 0 0 0 0 0 0 0 0 0 0 0 0 0 0 0 0 0 0 0 0 0 0 0
0 0 0 0 0 0 0 0 0 0 0 0 0 0 0 0 0 0 0 0 0 0 0 0 0 0 0 0 0 0 0 0 0 0 0 0 0 0 0 0 0 0 0 0
0 0 0 0 0 0 0 0 0 0 0 0 0 0 0 0 0 0 0 0 0 0 0 0 0 0 0 0 0 0 0 0 0 0 0 0 0 0 0 0 0 0 0 0
0 0 0 0 0 0 0 0 0 0 0 0 0 0 0 0 0 0 0 0 0 0 0 0 0 0 0 0 0 0 0 0 0 0 0 0 0 0 0 0 0 0 0 0
0 0 0 0 0 0 0 0 0 0 0 0 0 0 0 0 0 0 0 0 0 0 0 0 0 0 0 0 0 0 0 0 0 0 0 0 0 0 0 0 0 0 0 0
Wind_Speed
10 10 16 17 16 6 5 6 7 6 4 6 10 14 14 10 8 10 10 10 11 14 13 10 11 11 10 11 13 14 15 14 12 10 11 10 11 9 8 9 10 11 10 10
10 19 16 9 10 8 8 9 8 4 4 6 7 14 13 12 12 12 13 14 13 12 10 9 10 11 14 15 16 16 17 15 15 13 11 8 7 7 8 7 9 11 12 11
18 8 12 11 11 14 13 13 10 5 0 2 4 11 13 11 11 12 12 12 12 14 14 13 11 13 14 16 18 17 18 18 17 14 7 5 5 4 7 9 11 12 13 12
16 7 11 13 15 16 18 10 8 6 4 5 5 11 11 10 13 15 16 14 15 15 15 13 12 13 15 18 17 18 18 18 17 15 13 14 14 14 15 10 9 10 13 13
12 13 15 19 16 15 6 8 9 8 7 7 6 10 11 7 14 15 15 16 17 17 16 16 15 15 15 15 15 16 17 17 16 17 18 17 16 14 9 8 9 11 11 13
6 6 12 12 10 12 6 5 3 5 7 16 17 13 14 11 16 10 11 14 16 16 15 15 14 12 12 12 12 13 15 17 17 18 19 20 20 17 12 11 12 11 10 11
10 7 6 6 10 10 10 8 7 9 11 14 10 13 17 10 11 13 13 13 14 14 14 14 13 12 12 12 13 14 16 17 17 18 20 21 21 19 19 16 14 12 10 11
14 13 14 10 13 14 19 16 12 9 8 5 7 17 14 8 10 10 12 12 12 13 12 13 13 13 13 13 13 14 16 17 17 18 20 19 19 15 14 16 13 13 12 12
12 10 6 10 8 13 14 17 11 4 2 4 8 10 12 5 7 9 11 11 13 13 12 13 12 11 11 11 12 14 15 16 16 17 17 17 18 17 16 15 14 11 11 9
5 5 5 6 5 10 10 9 7 11 10 11 8 10 12 7 11 11 11 13 14 12 12 12 10 10 10 10 10 10 13 15 15 15 15 14 16 17 16 13 13 13 13 11
5 6 4 8 15 16 12 13 10 8 7 8 9 12 10 11 11 12 14 13 12 12 12 11 10 8 8 7 7 8 10 11 11 12 13 13 14 14 14 13 14 13 12 12
7 4 6 9 5 7 11 14 15 13 11 8 9 14 5 7 8 9 11 11 11 11 10 8 8 6 6 6 7 8 9 10 11 11 11 13 12 12 13 14 14 13 13 12
10 7 5 3 4 6 10 12 16 11 6 8 11 14 4 3 5 7 8 9 8 8 8 7 6 6 7 7 6 7 8 9 9 8 10 10 11 12 13 14 13 12 12 12
9 6 9 11 6 7 8 11 14 15 13 14 17 20 14 8 8 7 7 8 8 8 8 7 7 7 7 7 7 7 7 7 7 7 9 10 11 12 12 11 10 11 11 11
5 6 6 7 6 5 7 11 14 18 18 16 17 21 24 14 11 9 8 8 8 9 9 9 8 8 7 6 6 6 6 6 6 7 8 10 9 8 8 8 8 8 9 10
4 4 4 7 8 7 9 12 15 18 18 19 19 25 23 14 9 10 10 9 10 11 11 10 8 7 7 7 7 6 6 6 5 7 8 7 6 6 7 7 7 7 7 8
5 5 3 4 4 4 12 15 16 13 14 15 21 26 17 12 12 13 10 9 11 12 11 10 10 9 8 8 7 7 7 5 5 7 6 6 6 6 7 6 6 7 8 7
7 5 3 2 2 11 10 8 13 15 16 16 17 18 17 16 13 9 8 10 11 10 10 10 9 9 7 6 6 5 4 4 6 6 6 6 6 6 6 6 7 7 6 6
7 7 4 4 6 9 9 6 8 12 13 14 18 18 17 12 8 10 9 8 10 10 9 9 8 8 6 5 4 3 4 4 5 6 6 6 6 6 6 7 7 6 5 5
6 6 5 5 6 10 10 6 5 6 11 8 10 13 13 6 8 12 7 5 7 7 6 6 6 6 5 5 3 3 5 5 7 7 7 6 6 7 8 8 6 5 5 5
7 7 9 9 8 10 9 4 5 8 9 4 5 8 7 8 12 11 7 6 6 6 5 5 5 5 6 4 2 4 5 7 7 4 5 5 6 7 6 5 4 5 5 5
10 8 9 7 8 12 4 3 7 6 3 3 3 4 6 10 11 9 7 6 6 6 5 4 4 5 5 3 2 4 6 6 3 3 4 4 5 5 4 5 5 5 5 5
8 9 7 10 9 5 2 4 2 2 3 4 5 6 7 9 9 8 7 6 6 6 5 4 3 5 6 3 2 5 6 3 2 2 3 3 3 4 4 5 6 5 5 5
4 2 4 5 7 4 2 1 2 3 4 5 6 6 6 8 8 9 7 6 6 6 5 4 3 4 6 5 3 4 4 2 2 3 3 3 3 4 4 4 5 5 6 6
4 3 4 6 5 3 3 1 3 5 5 6 7 6 6 6 7 7 7 7 6 6 5 4 4 4 6 5 5 4 3 2 2 2 3 3 3 4 4 4 4 5 5 5
4 5 6 7 2 3 5 4 6 7 7 7 8 8 7 5 6 6 7 6 6 5 5 5 5 4 5 5 5 5 4 2 2 2 3 3 3 3 3 3 2 3 3 4
Wind_Direction
174 194 209 206 205 208 174 184 209 216 206 199 233 247 252 245 237 243 243 238 236 237 240 231 220 213 207 205 205 205 204 203 197 199 203 206 212 211 210 210 207 203 201 198
182 215 211 189 194 205 210 219 223 238 208 210 250 258 254 241 233 230 234 237 237 240 244 233 218 209 208 210 210 210 209 204 202 206 205 206 205 210 212 209 209 207 206 202
209 205 179 179 189 205 217 219 215 209 270 246 294 276 250 248 236 238 234 234 236 233 237 236 224 214 211 213 212 211 211 209 206 204 193 188 191 199 205 211 214 211 208 206
219 207 174 188 200 199 225 207 199 200 203 238 204 267 252 237 243 238 237 234 236 237 235 233 227 221 215 216 213 212 212 210 207 200 199 200 207 216 218 214 213 207 206 208
210 185 187 202 202 190 201 164 189 208 219 246 217 253 264 214 242 239 232 232 234 235 233 234 230 226 221 216 211 212 212 211 206 202 204 207 215 221 217 205 208 209 208 209
218 186 192 204 194 182 146 129 170 203 220 241 226 230 262 209 226 232 230 230 233 235 235 237 235 230 226 217 211 209 209 212 207 204 206 209 215 217 211 207 212 213 212 211
208 208 201 163 164 172 168 171 201 209 215 237 199 215 251 213 209 214 223 228 230 231 233 235 235 229 226 218 212 209 208 213 209 206 208 211 215 215 216 215 215 212 212 215
201 210 193 186 186 187 194 194 206 213 214 238 180 223 248 212 214 219 226 232 235 236 234 235 234 230 228 224 215 210 210 213 209 208 211 213 214 216 219 219 216 214 217 218
198 219 178 190 173 170 188 207 210 219 206 241 232 257 288 240 236 234 236 238 242 242 239 239 239 234 231 227 219 212 213 215 211 209 210 212 213 215 218 217 216 217 217 214
170 208 194 175 162 197 190 171 176 208 215 233 240 237 241 222 223 229 232 235 241 242 243 245 242 237 233 229 224 216 214 215 213 210 210 212 213 215 218 217 216 216 216 211
171 197 194 177 194 193 182 193 202 209 206 214 243 248 223 216 213 217 225 231 236 241 242 244 244 242 240 235 223 217 216 216 213 211 212 213 214 214 215 218 220 219 218 212
175 183 217 220 221 205 199 203 200 214 218 217 242 258 225 206 216 219 230 236 241 245 247 247 250 251 244 235 226 221 217 216 216 211 210 214 215 212 213 218 220 218 218 215
160 181 201 220 224 207 214 212 211 218 222 222 234 258 255 210 231 233 242 256 265 267 267 265 262 256 249 242 233 227 224 221 216 208 209 213 213 213 216 219 219 217 217 217
167 181 204 213 204 183 205 214 212 211 224 233 235 254 263 261 260 261 258 261 266 265 264 265 266 261 255 249 240 233 232 223 214 207 209 213 215 215 218 218 216 214 214 215
169 196 214 235 236 209 213 219 219 224 228 234 241 248 256 251 250 253 255 262 269 270 265 258 257 261 260 257 251 240 237 226 209 206 211 217 216 214 214 215 214 212 211 214
169 183 197 238 235 229 242 234 227 229 232 239 248 255 256 254 252 255 254 251 257 263 263 262 260 258 256 253 250 242 236 224 203 208 217 218 209 205 208 211 208 206 210 211
165 164 174 230 223 227 243 227 224 227 225 226 240 250 261 262 249 246 247 245 248 255 258 258 256 254 251 248 242 238 234 216 204 213 218 211 204 206 208 203 198 205 208 205
160 157 173 207 179 230 238 214 213 227 238 234 242 255 259 256 256 253 241 242 250 254 259 260 258 258 253 247 244 243 235 212 211 217 217 209 200 207 204 196 203 207 201 203
174 163 173 186 226 262 275 240 201 210 238 232 238 251 260 267 275 264 246 236 246 254 256 258 256 258 257 248 235 222 232 225 220 222 218 212 200 200 197 201 209 205 194 200
186 175 180 193 207 231 242 228 198 183 246 245 231 247 261 268 262 266 273 260 259 259 258 262 266 263 260 255 217 205 226 224 229 226 219 210 196 196 200 204 202 191 187 197
172 191 206 215 227 250 251 240 144 194 240 265 239 249 258 243 247 273 288 274 265 265 265 270 278 278 270 261 209 221 233 236 237 223 213 208 199 199 201 194 187 180 179 179
175 179 194 194 216 244 252 153 190 226 282 307 302 284 273 270 277 283 288 292 291 287 286 284 288 289 289 271 212 235 249 253 241 211 210 212 202 192 186 183 182 176 174 182
197 190 186 194 214 229 184 195 260 334 305 311 311 308 300 285 284 291 292 297 298 295 294 294 288 297 303 294 238 242 263 263 244 224 223 214 199 189 181 181 183 178 180 190
230 199 190 227 242 243 238 245 338 330 306 307 303 300 303 294 294 295 297 301 304 306 306 306 306 301 303 311 299 271 283 278 229 225 228 208 194 193 185 184 183 185 190 194
209 183 207 238 266 297 250 271 326 326 325 324 320 313 313 316 309 304 305 307 310 317 325 326 311 301 304 318 318 313 305 284 249 237 223 205 195 190 190 191 191 193 202 196
195 187 199 230 233 247 272 312 325 317 316 320 320 319 321 321 311 314 311 312 319 324 329 332 330 324 321 324 322 326 326 299 247 246 227 209 195 186 184 185 189 176 180 179